STARLINK-3561, 52284

Orbit data source: Space-Track

STARLINK-3561, 52284 is a payload satellite owned by SpaceX/Seattle (US) in LEO that was launched on Thu, 21 Apr 2022 UTC via an FALCON 9 launch vehicle from the Air Force Eastern Test Range (AFETR). Payload-class satellites include a variety of spacecraft equipped with specific instruments for various scientific and technological missions. These include communications satellites like Starlink; space stations such as the ISS; scientific satellites like the Hubble; Earth observation satellites from companies like Planet Labs, Umbra, and HawkEye 360; GPS; miniature CubeSats for education and research; and military/defense satellites.

Loading next visibility...
Identifier
52284, 2022-041Z
Orbit
LEO
Country
Flag of USUS
Related business
Manufacturer
SpaceX/Seattle
Mission
Operational Commercial Communications
Bus & Motor
STARLINK, Unknown motor
Mass
297 kg wet, ~275 kg dry
Launch date (UTC)
2022-04-21 (4 years ago)
Launch vehicle
FALCON 9
Launch site
Air Force Eastern Test Range (AFETR)
Object type
Payload
Rocket body
Debris
Shape & HBR
Box + 1 Pan, 10.1 m
Radar Cross Section
11.087 m², Large (>1 m²)

Expand to show TLE details & history
Last TLE update: 18 hours ago

TLE from 18 hours ago
0 STARLINK-3561
1 52284U 22041Z   26129.84875455  .00001295  00000-0  99401-4 0  9990
2 52284  53.2162 184.5644 0000961  91.1518 268.9585 15.08841339223737
Epoch: 2026-05-09T20:22Z
TLE epoch observation values (Epoch: 2026-05-09T20:22:12.393Z)
Latitude
0.00006°
Longitude
11.35251°
Altitude
540.649 km
Speed
7.593 km/s
True Right ascension
12h 18m 15s
True Declination
0° 00' 00"
Sunlit
Object was in full shadow at epoch
Visualization orbit readout
Latitude
Unknown
Longitude
Unknown
Altitude
Unknown
Speed
Unknown
Apparent Right ascension
Unknown
Apparent Declination
Unknown
Sunlit
N/A
Visualization observer readout
Local Sidereal Time
22:52:39
Azimuth
Unknown
Elevation
Unknown
Doppler factor
Unknown
Orbital elements
Apogee altitude
540.649 km
Perigee altitude
539.32 km
Semi-major axis
6,918.121 km
Eccentricity
0.0001
Inclination
53.2162°
RAAN
184.5644°
Arg. of periapsis
91.1518°
True anomaly
268.94749°
Mean anomaly
268.9585°
Eccentric anomaly
268.95299°
Mean motion
3.77191 °/min
Orbital period
95.44 mins
BSTAR
0.000099401
Loading maneuver chart data...
Computing Atmospheric mass density...
Loading historical data...
Loading historical data...
Loading historical data...
Loading historical data...
Loading historical data...
Loading historical data...
Loading historical data...

Documentation

Showing up to 5 results
|